BEIDOU IGSO 3

Last updated on Tue Apr 02 2019 03:15:24 GMT+0000 (Coordinated Universal Time)

1 37384U 11013A 19091.00644862 -.00000151 00000-0 10000-3 0 9993 2 37384 58.6757 66.1432 0040648 209.8532 35.3806 1.00278153 29269
UTC large
Height (km)
Speed (km/s)
/
Latitude / Longitude
Inclination (degrees)
Orbital Period (minutes)
Azimuth
Elevation
Range (km)
Doppler Factor

Next 0 passes for location: London (51.5072 / 0.1276)

Sorry there are no passes over London.
BEIDOU IGSO 3